Location: Unspecified
(43.4680°N, 87.1740°E)
Time: 05:06:22
(UTC+00:00)

BREEZE-M DEB (TANK) - Pass Details

Date: 17 April 2021
Orbit: 283 x 18737 km, 52.5° (Epoch: 15 May)

Event Time Altitude Azimuth Distance (km) Brightness Sun altitude
Rises 16:05:11 0° 232° (SW) 11,306 9.4 -28.7°
Reaches altitude 10° 16:16:48 10° 235° (SW) 7,352 8.4 -29.9°
Maximum altitude 16:32:37 85° 326° (NW) 1,072 4.1 -31.4°
Enters shadow 16:32:43 84° 353° (N) 1,059 4.0 -31.4°
